Tracking 28794 objects as of 19-Apr-2024
HD Live streaming from Space Station
objects crossing your sky now

STARLINK-1436

Track STARLINK-1436 now!
10-day predictions
STARLINK-1436 is classified as:


NORAD ID: 45713
Int'l Code: 2020-035BJ
Perigee: 544.0 km
Apogee: 545.0 km
Inclination: 53.1 °
Period: 95.4 minutes
Semi major axis: 6915 km
RCS: Unknown
Launch date: June 4, 2020
Source: United States (US)
Launch site: AIR FORCE EASTERN TEST RANGE (AFETR)
Your satellite tracking list
Your tracking list is empty




NASA's NSSDC Master Catalog

Two Line Element Set (TLE):
1 45713U 20035BJ  24110.63710438  .00018487  00000-0  11513-2 0  9991
2 45713  53.0531 268.6876 0000725  85.1426 274.9647 15.09634360214623
Source of the keplerian elements: AFSPC